Escanaba, MI

9:16 AM EDT on April 30, 2017 (GMT -0400)
Delta County

Weather History for KESC - February, 2012

Change the Weather History Date:

Sunday, February 19, 2012

  Actual Average Record
Temperature  
Mean Temperature 20 °F -  
Max Temperature 33 °F 29 °F 55 °F (2013)
Min Temperature 8 °F 12 °F -18 °F (2015)
Degree Days  
Heating Degree Days 44    
Moisture  
Dew Point 11 °F    
Average Humidity 65    
Maximum Humidity 79    
Minimum Humidity 47    
Precipitation  
Precipitation 0.00 in - - ()
Sea Level Pressure  
Sea Level Pressure 30.16 in    
Wind  
Wind Speed 2 mph (South)    
Max Wind Speed 10 mph    
Max Gust Speed -    
Visibility 10 miles    
Events      
Averages and records for this station are not official NWS values.
T = Trace of Precipitation, MM = Missing Value Source: NWS Daily Summary

Daily Weather History Graph

Daily Weather History Graph

Search for Another Location

Airport or City:

Trip Planner

Search our weather history database for the weather conditions in past years. The results will help you decide how hot, cold, wet, or windy it might be!

Date:

Astronomy

Feb. 19, 2012 Rise Set
Actual Time 7:44 AM EST 6:20 PM EST
Civil Twilight 7:14 AM EST 6:50 PM EST
Nautical Twilight 6:39 AM EST 7:25 PM EST
Astronomical Twilight 6:05 AM EST 7:59 PM EST
Moon 6:10 AM EST (2/19) 4:17 PM EST (2/19)
Length of Visible Light 11h 36m
Length of Day
10h 35m
Waning Crescent, 5% of the Moon is Illuminated
Feb 19
Waning Crescent
Feb 21
New
Feb 29
First Quarter
Mar 8
Full
Mar 14
Last Quarter

Hourly Weather History & Observations

Time (EST) Temp. Windchill Dew Point Humidity Pressure Visibility Wind Dir Wind Speed Gust Speed Precip Events Conditions
12:15 AM 14.0 °F - 6.8 °F 73% 30.19 in 10.0 mi Calm Calm - N/A   Clear
12:35 AM 14.0 °F - 6.8 °F 73% 30.19 in 10.0 mi Calm Calm - N/A   Clear
12:55 AM 12.2 °F - 6.8 °F 79% 30.19 in 10.0 mi Calm Calm - N/A   Partly Cloudy
1:15 AM 14.0 °F - 6.8 °F 73% 30.19 in 10.0 mi Calm Calm - N/A   Clear
1:35 AM 12.2 °F - 5.0 °F 73% 30.19 in 10.0 mi Calm Calm - N/A   Clear
1:55 AM 10.4 °F - 3.2 °F 73% 30.19 in 10.0 mi Calm Calm - N/A   Clear
2:15 AM 10.4 °F - 3.2 °F 73% 30.19 in 10.0 mi Calm Calm - N/A   Clear
2:35 AM 12.2 °F - 5.0 °F 73% 30.19 in 10.0 mi Calm Calm - N/A   Clear
2:55 AM 10.4 °F - 3.2 °F 73% 30.18 in 10.0 mi Calm Calm - N/A   Clear
3:15 AM 10.4 °F - 3.2 °F 73% 30.18 in 10.0 mi Calm Calm - N/A   Clear
3:35 AM 10.4 °F 4.0 °F 3.2 °F 73% 30.18 in 10.0 mi NW 3.5 mph - N/A   Clear
3:55 AM 10.4 °F 2.2 °F 3.2 °F 73% 30.18 in 9.0 mi WNW 4.6 mph - N/A   Clear
4:15 AM 10.4 °F 4.0 °F 5.0 °F 79% 30.17 in 8.0 mi WNW 3.5 mph - N/A   Clear
4:35 AM 10.4 °F - 3.2 °F 73% 30.17 in 8.0 mi Calm Calm - N/A   Clear
4:55 AM 8.6 °F - 1.4 °F 73% 30.17 in 8.0 mi Calm Calm - N/A   Clear
5:35 AM 8.6 °F 0.1 °F 1.4 °F 73% 30.17 in 10.0 mi WNW 4.6 mph - N/A   Clear
5:55 AM 10.4 °F 2.2 °F 3.2 °F 73% 30.17 in 10.0 mi WNW 4.6 mph - N/A   Clear
6:15 AM 8.6 °F 2.0 °F 1.4 °F 73% 30.17 in 10.0 mi NNW 3.5 mph - N/A   Clear
6:35 AM 10.4 °F - 3.2 °F 73% 30.17 in 10.0 mi Calm Calm - N/A   Clear
6:55 AM 10.4 °F - 1.4 °F 67% 30.17 in 10.0 mi Calm Calm - N/A   Clear
7:35 AM 8.6 °F - 3.2 °F 79% 30.18 in 10.0 mi Calm Calm - N/A   Clear
8:15 AM 8.6 °F 2.0 °F -0.4 °F 67% 30.18 in 10.0 mi West 3.5 mph - N/A   Clear
8:35 AM 10.4 °F - 3.2 °F 73% 30.19 in 10.0 mi Calm Calm - N/A   Clear
8:55 AM 12.2 °F - 6.8 °F 79% 30.19 in 10.0 mi Calm Calm - N/A   Clear
9:15 AM 15.8 °F 10.2 °F 6.8 °F 68% 30.19 in 10.0 mi NW 3.5 mph - N/A   Clear
9:35 AM 17.6 °F 12.3 °F 8.6 °F 68% 30.19 in 10.0 mi WNW 3.5 mph - N/A   Clear
9:55 AM 19.4 °F - 10.4 °F 68% 30.19 in 10.0 mi Calm Calm - N/A   Clear
10:15 AM 21.2 °F - 10.4 °F 63% 30.19 in 10.0 mi Calm Calm - N/A   Clear
10:35 AM 24.8 °F 19.1 °F 12.2 °F 59% 30.18 in 10.0 mi NNW 4.6 mph - N/A   Clear
10:55 AM 26.6 °F - 12.2 °F 55% 30.18 in 10.0 mi Calm Calm - N/A   Clear
11:15 AM 30.2 °F - 14.0 °F 51% 30.18 in 10.0 mi Calm Calm - N/A   Clear
11:35 AM 30.2 °F 26.7 °F 12.2 °F 47% 30.17 in 10.0 mi South 3.5 mph - N/A   Clear
11:55 AM 30.2 °F 24.3 °F 15.8 °F 55% 30.17 in 10.0 mi SSE 5.8 mph - N/A   Clear
12:15 PM 28.4 °F 20.4 °F 15.8 °F 59% 30.17 in 10.0 mi ESE 8.1 mph - N/A   Clear
12:35 PM 30.2 °F 22.6 °F 17.6 °F 60% 30.16 in 10.0 mi SE 8.1 mph - N/A   Clear
12:55 PM 32.0 °F 24.8 °F 17.6 °F 55% 30.15 in 10.0 mi SSE 8.1 mph - N/A   Clear
1:15 PM 30.2 °F 22.6 °F 17.6 °F 60% 30.15 in 10.0 mi SE 8.1 mph - N/A   Clear
1:35 PM 32.0 °F 25.6 °F 17.6 °F 55% 30.14 in 10.0 mi SSE 6.9 mph - N/A   Clear
1:55 PM 32.0 °F 25.6 °F 17.6 °F 55% 30.14 in 10.0 mi SSE 6.9 mph - N/A   Clear
2:35 PM 33.8 °F 27.0 °F 19.4 °F 56% 30.13 in 10.0 mi South 8.1 mph - N/A   Clear
2:55 PM 33.8 °F 25.8 °F 17.6 °F 52% 30.12 in 10.0 mi South 10.4 mph - N/A   Clear
3:15 PM 33.8 °F 26.4 °F 19.4 °F 56% 30.12 in 10.0 mi South 9.2 mph - N/A   Clear
3:35 PM 33.8 °F 26.4 °F 19.4 °F 56% 30.12 in 10.0 mi South 9.2 mph - N/A   Clear
3:55 PM 33.8 °F 27.7 °F 19.4 °F 56% 30.12 in 10.0 mi South 6.9 mph - N/A   Clear
4:15 PM 32.0 °F 24.2 °F 19.4 °F 60% 30.12 in 10.0 mi South 9.2 mph - N/A   Clear
4:35 PM 32.0 °F 26.4 °F 19.4 °F 60% 30.12 in 10.0 mi South 5.8 mph - N/A   Clear
4:55 PM 32.0 °F 25.6 °F 19.4 °F 60% 30.12 in 10.0 mi South 6.9 mph - N/A   Clear
5:15 PM 32.0 °F 24.8 °F 19.4 °F 60% 30.12 in 10.0 mi South 8.1 mph - N/A   Clear
5:35 PM 33.8 °F 27.0 °F 17.6 °F 52% 30.12 in 10.0 mi South 8.1 mph - N/A   Clear
5:55 PM 32.0 °F 24.8 °F 17.6 °F 55% 30.12 in 10.0 mi SSW 8.1 mph - N/A   Clear
6:15 PM 30.2 °F 23.4 °F 17.6 °F 60% 30.12 in 10.0 mi South 6.9 mph - N/A   Clear
6:35 PM 30.2 °F 24.3 °F 17.6 °F 60% 30.13 in 10.0 mi South 5.8 mph - N/A   Clear
6:55 PM 30.2 °F 23.4 °F 19.4 °F 64% 30.13 in 10.0 mi South 6.9 mph - N/A   Clear
7:15 PM 30.2 °F 25.4 °F 17.6 °F 60% 30.14 in 10.0 mi South 4.6 mph - N/A   Clear
7:35 PM 30.2 °F 25.4 °F 17.6 °F 60% 30.14 in 10.0 mi South 4.6 mph - N/A   Clear
7:55 PM 28.4 °F 24.6 °F 17.6 °F 64% 30.14 in 10.0 mi East 3.5 mph - N/A   Clear
8:15 PM 28.4 °F - 19.4 °F 69% 30.14 in 10.0 mi Calm Calm - N/A   Clear
8:35 PM 24.8 °F 19.1 °F 15.8 °F 69% 30.14 in 10.0 mi South 4.6 mph - N/A   Clear
8:55 PM 26.6 °F 21.2 °F 17.6 °F 69% 30.14 in 10.0 mi South 4.6 mph - N/A   Clear
9:15 PM 26.6 °F - 17.6 °F 69% 30.14 in 10.0 mi Calm Calm - N/A   Clear
9:35 PM 26.6 °F 22.6 °F 17.6 °F 69% 30.14 in 10.0 mi South 3.5 mph - N/A   Clear
9:55 PM 26.6 °F - 19.4 °F 74% 30.15 in 10.0 mi Calm Calm - N/A   Clear
10:15 PM 23.0 °F - 15.8 °F 74% 30.15 in 10.0 mi Calm Calm - N/A   Clear
10:35 PM 23.0 °F - 15.8 °F 74% 30.15 in 10.0 mi Calm Calm - N/A   Clear
10:55 PM 21.2 °F - 15.8 °F 80% 30.15 in 10.0 mi Calm Calm - N/A   Clear
11:15 PM 19.4 °F - 14.0 °F 80% 30.15 in 8.0 mi Calm Calm - N/A   Clear
11:35 PM 19.4 °F - 12.2 °F 74% 30.15 in 8.0 mi Calm Calm - N/A   Clear
11:55 PM 17.6 °F - 10.4 °F 73% 30.16 in 10.0 mi Calm Calm - N/A   Clear